FW1093 Weather Reports


time (UTC)temp
F
wind
direction
speed
knots
gust
knots
rain 1hr
in
rain 24hr
in
rain mn
in
humidity
%
barometer
mb
20260508173315 57 155 2.6 11.3 0.00 0.00 0.00 45 1011.5
20260508172322 58 23 1.7 6.1 0.00 0.00 0.00 46 1011.3
20260508171357 58 284 0.9 2.6 0.00 0.00 0.00 45 1011.1
20260508170326 57 189 1.7 6.1 0.00 0.00 0.00 46 1011.3
20260508165314 56 293 0.9 3.5 0.00 0.00 0.00 47 1011.3
20260508164333 57 212 0.0 2.6 0.00 0.00 0.00 45 1011.3
20260508163328 57 97 1.7 3.5 0.00 0.00 0.00 43 1011.3
20260508162324 58 9 0.9 5.2 0.00 0.00 0.00 45 1011.2
20260508161315 59 36 1.7 5.2 0.00 0.00 0.00 43 1011.4
20260508160331 58 308 1.7 5.2 0.00 0.00 0.00 45 1011.3
20260508155322 59 306 0.9 2.6 0.00 0.00 0.00 41 1011.4
20260508154331 59 299 0.9 5.2 0.00 0.00 0.00 44 1011.6
20260508153321 59 18 1.7 4.3 0.00 0.00 0.00 44 1011.7
20260508152337 59 321 0.9 3.5 0.00 0.00 0.00 47 1011.7
20260508151352 59 323 0.9 3.5 0.00 0.00 0.00 48 1011.4
20260508150318 58 295 0.9 2.6 0.00 0.00 0.00 48 1011.3
20260508144315 56 20 0.0 2.6 0.00 0.00 0.00 50 1011.3
20260508143325 55 97 0.9 3.5 0.00 0.00 0.00 54 1011.4
20260508142315 54 4 1.7 5.2 0.00 0.00 0.00 53 1011.6
20260508141329 53 304 0.0 2.6 0.00 0.00 0.00 55 1011.7
20260508140316 53 321 0.0 2.6 0.00 0.00 0.00 57 1012.0
20260508135330 52 23 0.0 1.7 0.00 0.00 0.00 60 1011.9
20260508134338 52 309 0.0 1.7 0.00 0.00 0.00 57 1011.8
20260508133325 51 353 0.0 1.7 0.00 0.00 0.00 59 1011.8
20260508132315 51 288 0.0 2.6 0.00 0.00 0.00 62 1012.0
20260508131349 50 1 0.0 3.5 0.00 0.00 0.00 64 1012.4
20260508130316 50 343 0.9 3.5 0.00 0.00 0.00 62 1012.4
20260508125324 49 6 0.9 1.7 0.00 0.00 0.00 68 1012.3
20260508124314 48 343 0.0 2.6 0.00 0.00 0.00 67 1012.3
20260508123328 48 266 0.9 1.7 0.00 0.00 0.00 71 1012.3
20260508122318 47 285 0.0 1.7 0.00 0.00 0.00 75 1012.2
20260508121326 46 342 0.0 0.9 0.00 0.00 0.00 76 1012.2
20260508120315 46 341 0.0 1.7 0.00 0.00 0.00 76 1012.3
20260508115332 46 34 0.0 1.7 0.00 0.00 0.00 78 1012.2
20260508114322 45 322 0.0 1.7 0.00 0.00 0.00 79 1012.3
20260508113314 44 303 0.0 0.9 0.00 0.00 0.00 81 1012.2
20260508112345 43 41 0.0 0.0 0.00 0.00 0.00 83 1012.2
20260508111319 42 45 0.0 0.0 0.00 0.00 0.00 84 1012.1
20260508110326 43 45 0.0 0.0 0.00 0.00 0.00 84 1012.0
20260508105314 43 45 0.0 0.0 0.00 0.00 0.00 83 1012.0
20260508104352 43 45 0.0 0.0 0.00 0.00 0.00 82 1012.0
20260508103318 43 45 0.0 0.0 0.00 0.00 0.00 81 1012.0
20260508102327 43 45 0.0 0.0 0.00 0.00 0.00 80 1011.7
20260508101317 44 45 0.0 0.0 0.00 0.00 0.00 80 1011.6
20260508100325 44 45 0.0 0.0 0.00 0.00 0.00 80 1011.5
20260508095331 44 45 0.0 0.0 0.00 0.01 0.00 81 1011.5
20260508094340 44 45 0.0 0.0 0.00 0.01 0.00 81 1011.2
20260508093355 44 45 0.0 0.0 0.00 0.01 0.00 80 1011.1
20260508092323 44 45 0.0 0.0 0.00 0.01 0.00 78 1011.2
20260508091333 44 45 0.0 0.0 0.00 0.01 0.00 78 1011.1
20260508090322 44 45 0.0 0.0 0.00 0.01 0.00 77 1011.3
20260508085312 44 45 0.0 0.0 0.00 0.04 0.00 76 1011.2
20260508084349 44 45 0.0 0.0 0.00 0.04 0.00 76 1011.3
20260508083335 44 45 0.0 0.0 0.00 0.04 0.00 77 1011.4
20260508082325 44 45 0.0 0.0 0.00 0.04 0.00 75 1011.3
20260508081334 44 45 0.0 0.0 0.00 0.04 0.00 80 1011.3
20260508080324 44 46 0.0 0.0 0.00 0.04 0.00 78 1011.3
20260508075340 44 44 0.0 0.0 0.00 0.10 0.00 72 1011.2
20260508074327 44 44 0.0 0.0 0.00 0.10 0.00 75 1011.0
20260508073336 44 44 0.0 0.0 0.00 0.10 0.00 79 1011.0
20260508072326 44 44 0.0 0.0 0.00 0.10 0.00 78 1011.1
20260508071315 44 44 0.0 0.0 0.00 0.10 0.00 79 1011.1
20260508070329 44 44 0.0 1.7 0.00 0.10 0.00 76 1011.1
20260508065317 43 221 0.0 2.6 0.00 0.17 0.00 81 1011.2
20260508064325 42 267 0.0 0.0 0.00 0.17 0.00 83 1011.2
20260508063314 42 267 0.0 0.0 0.00 0.17 0.00 84 1010.8
20260508062321 42 267 0.0 0.0 0.00 0.17 0.00 84 1010.4
20260508061337 43 267 0.0 0.0 0.00 0.17 0.00 83 1010.2
20260508060346 42 267 0.0 0.0 0.00 0.17 0.00 82 1010.2
20260508055314 42 267 0.0 0.0 0.00 0.17 0.00 81 1010.2
20260508054322 41 266 0.0 0.0 0.00 0.17 0.00 84 1010.0
20260508053331 41 266 0.0 0.0 0.00 0.17 0.00 84 1009.8
20260508052321 41 266 0.0 0.0 0.00 0.17 0.00 84 1009.8
20260508051335 41 266 0.0 0.0 0.00 0.17 0.00 84 1009.9
20260508050326 41 266 0.0 0.0 0.00 0.17 0.00 83 1009.8
20260508045334 41 266 0.0 0.0 0.00 0.17 0.00 82 1009.7
20260508044323 41 266 0.0 0.0 0.00 0.17 0.00 81 1009.8
20260508043316 41 266 0.0 0.0 0.00 0.17 0.00 79 1009.8
20260508042324 41 266 0.0 0.0 0.00 0.17 0.00 79 1009.8
20260508041314 42 266 0.0 0.0 0.00 0.17 0.00 80 1009.9
20260508040322 42 266 0.0 0.0 0.00 0.17 0.00 79 1009.9
20260508035359 42 266 0.0 0.0 0.00 0.17 0.17 79 1010.1
20260508034328 42 266 0.0 0.0 0.00 0.17 0.17 78 1010.1
20260508033315 42 266 0.0 0.0 0.00 0.17 0.17 76 1010.1
20260508032323 43 266 0.0 0.0 0.00 0.17 0.17 74 1010.2
20260508031338 43 266 0.0 0.0 0.00 0.17 0.17 78 1010.3
20260508030347 43 266 0.0 0.0 0.00 0.17 0.17 78 1010.2
20260508025315 43 266 0.0 0.0 0.00 0.17 0.17 78 1010.2
20260508024351 43 266 0.0 0.0 0.00 0.17 0.17 78 1010.1
20260508023317 43 266 0.0 0.0 0.00 0.17 0.17 78 1010.1
20260508022352 43 266 0.0 0.0 0.00 0.17 0.17 77 1010.0
20260508021320 43 266 0.0 0.0 0.00 0.17 0.17 76 1010.1
20260508020328 44 266 0.0 0.0 0.00 0.17 0.17 77 1010.1
20260508015338 44 266 0.0 0.0 0.00 0.17 0.17 76 1010.0
20260508014346 45 266 0.0 0.0 0.00 0.17 0.17 75 1010.0
20260508013313 46 266 0.0 0.0 0.00 0.17 0.17 73 1009.8
20260508012327 46 266 0.0 0.0 0.00 0.17 0.17 73 1009.6
20260508011316 47 266 0.0 0.0 0.00 0.17 0.17 71 1009.6
20260508010325 48 266 0.0 0.0 0.00 0.17 0.17 69 1009.5
20260508005315 49 266 0.0 0.0 0.00 0.17 0.17 69 1009.1
20260508004324 49 266 0.0 0.0 0.00 0.17 0.17 66 1008.9
20260508003313 50 266 0.0 0.0 0.00 0.17 0.17 64 1008.8
20260508002346 51 266 0.0 0.0 0.00 0.17 0.17 63 1008.6
20260508001316 52 266 0.0 0.0 0.00 0.17 0.17 60 1008.5
20260508000331 53 266 0.0 0.0 0.00 0.17 0.17 58 1008.6
20260507234331 57 266 0.0 0.0 0.00 0.17 0.17 53 1008.3
20260507233336 58 266 0.0 1.7 0.00 0.17 0.17 52 1008.2
20260507232323 58 236 0.0 0.9 0.00 0.17 0.17 46 1008.2
20260507231313 58 278 0.0 0.9 0.00 0.17 0.17 43 1008.1
20260507230348 58 307 0.0 2.6 0.00 0.17 0.17 43 1008.1
20260507225337 59 360 0.9 3.5 0.00 0.17 0.17 40 1008.1
20260507224326 59 330 0.9 4.3 0.00 0.17 0.17 38 1008.1
20260507223317 61 282 0.9 1.7 0.00 0.17 0.17 39 1008.0
20260507222333 61 292 0.0 1.7 0.00 0.17 0.17 37 1008.0
20260507221342 62 347 0.0 4.3 0.00 0.17 0.17 37 1007.9
20260507220328 63 333 0.0 2.6 0.00 0.17 0.17 36 1007.9
20260507215337 62 49 1.7 7.8 0.00 0.17 0.17 35 1008.0
20260507214329 62 316 1.7 3.5 0.00 0.17 0.17 34 1007.8
20260507213319 59 285 0.9 3.5 0.00 0.17 0.17 40 1007.7
20260507212334 60 359 0.0 2.6 0.00 0.17 0.17 41 1007.8
20260507211322 61 152 0.0 5.2 0.00 0.17 0.17 38 1007.7
20260507210331 61 3 1.7 4.3 0.00 0.17 0.17 38 1007.7
20260507205319 61 257 0.0 3.5 0.00 0.18 0.17 38 1007.5
20260507204337 63 304 0.9 3.5 0.00 0.18 0.17 37 1007.4
20260507203325 62 300 0.9 4.3 0.00 0.18 0.17 36 1007.4
20260507202359 61 328 0.9 4.3 0.00 0.18 0.17 39 1007.4
20260507201327 61 288 0.9 3.5 0.00 0.18 0.17 38 1007.4
20260507200336 61 300 0.9 4.3 0.00 0.18 0.17 37 1007.5
20260507195323 60 350 1.7 5.2 0.00 0.18 0.17 38 1007.8
20260507194317 62 274 1.7 4.3 0.00 0.18 0.17 35 1007.6
20260507193346 62 272 1.7 5.2 0.00 0.18 0.17 39 1007.7
20260507192318 62 8 0.9 2.6 0.00 0.18 0.17 40 1007.8
20260507191333 61 275 0.0 4.3 0.00 0.18 0.17 38 1007.9
20260507190323 62 294 0.9 5.2 0.00 0.18 0.17 38 1008.1
20260507185330 62 245 0.9 4.3 0.00 0.20 0.17 38 1008.2
20260507184317 62 344 1.7 3.5 0.00 0.20 0.17 36 1008.4
20260507183335 62 324 1.7 5.2 0.00 0.20 0.17 38 1008.4
20260507182319 61 281 0.9 5.2 0.00 0.20 0.17 42 1008.5
20260507181325 61 360 0.9 5.2 0.00 0.20 0.17 38 1008.6
20260507180340 61 275 1.7 3.5 0.00 0.20 0.17 40 1008.8
20260507175327 61 293 1.7 4.3 0.00 0.23 0.17 38 1008.9
20260507174314 60 329 2.6 7.0 0.00 0.23 0.17 36 1009.1